Regional Weather Roundup
Issued by NWS

Home | Current Version | Previous Version | Text Only | Print | Product List | Glossary Off
Versions: 1 2 3 4 5 6 7 8 9 10 11 12 13 14 15 16 17 18 19 20 21 22 23 24 25 26 27 28

000
ASUS45 KTFX 200410
RWRMT
MONTANA REGIONAL WEATHER ROUNDUP
NATIONAL WEATHER SERVICE GREAT FALLS MT
1000 PM MDT THU OCT 19 2017

NOTE: "FAIR" INDICATES FEW OR NO CLOUDS BELOW 12000 FEET WITH NO
SIGNIFICANT WEATHER AND/OR OBSTRUCTIONS TO VISIBILITY.

MTZ001>007-043-200500-
WEST OF THE DIVIDE

CITY           SKY/WX    TMP DP  RH WIND       PRES   REMARKS
KALISPELL      CLOUDY    47  35  63 CALM      29.46F
MISSOULA       MOCLDY    52  24  33 N5        29.49F
BUTTE          MOCLDY    59  15  18 S21       29.63F
MULLAN PASS    MOCLDY    38  27  64 W8        29.55F
DEER LODGE       N/A     59  18  20 SW6       29.58F
EUREKA           N/A     54  34  47 MISG      29.49F
HAMILTON         N/A     52  21  30 CALM      29.51F
LIBBY            N/A     52  36  54 SE3       29.48S
PLAINS           N/A     46  33  60 CALM      29.50F
$$

MTZ008-052>055-200500-
SOUTHWEST MONTANA

CITY           SKY/WX    TMP DP  RH WIND       PRES   REMARKS
BOZEMAN        MOCLDY    52  18  26 SE14      29.62F
DILLON         CLOUDY    63  16  16 S25G36    29.62F
W YELLOWSTONE  CLEAR     36  16  44 CALM      29.83F
ENNIS          PTCLDY    57  16  19 S15G21    29.73F
THREE FORKS      N/A     64  13  14 S16       29.65F
TWIN BRIDGES     N/A     61  15  16 SE8       29.66F
$$

MTZ009-010-012-014-046-048-049-054-200500-
EAST SLOPES AND CENTRAL MONTANA

CITY           SKY/WX    TMP DP  RH WIND       PRES   REMARKS
CUT BANK       MOCLDY    48  20  32 W5        29.46F
GREAT FALLS    CLOUDY    62  16  16 S14       29.47F
MALMSTROM AFB  CLOUDY    61  17  18 S15       29.47F
HELENA         CLOUDY    69  15  12 S18G31    29.52F
BOWMANS CRNR   MOCLDY    57  15  19 S6        29.48F
CHOTEAU          N/A     48  19  32 NW3       29.48F
FAIRFIELD        N/A     52  22  31 S8        29.46F
POWER            N/A     51  21  31 E6        29.47F
RAYNESFORD       N/A     67  12  12 SW16G23   29.50F
ULM              N/A     56  21  26 SW9       29.48F
$$

MTZ011-013-016-021-045-047-050-051-200500-
NORTH CENTRAL MONTANA

CITY           SKY/WX    TMP DP  RH WIND       PRES   REMARKS
HAVRE          MOCLDY    48  29  47 CALM      29.44F
LEWISTOWN      CLOUDY    53  22  29 E5        29.55F
N BAR RANCH      N/A     66   9  10 SW23G32   29.59F
CHINOOK          N/A     55  27  33 E5        29.43F
DENTON           N/A     56  22  27 S13       29.47F
GEYSER           N/A     61  16  17 S8        29.51F
GRASS RANGE      N/A     62  17  17 SW14      29.51F
JUDITH GAP       N/A     51  17  25 SE10      29.59F
WINIFRED         N/A     64  18  16 SE14      29.50F
$$

MTZ017>020-022>027-061-062-200500-
NORTHEAST MONTANA

CITY           SKY/WX    TMP DP  RH WIND       PRES   REMARKS
GLASGOW        MOCLDY    55  29  36 E14       29.50F
JORDAN           N/A     54  28  36 CALM      29.53F
SIDNEY         PTCLDY    47  32  56 CALM      29.58F
WOLF POINT     PTCLDY    49  27  42 N5        29.54F
MALTA          CLEAR     63  28  27 VRB3      29.46F
PLENTYWOOD       N/A     55  30  38 CALM      29.56F
POPLAR           N/A     61  28  29 E7        29.55F
SCOBEY           N/A     51  21  30 S1        29.57F
$$

MTZ028>42-056>058-200500-
SOUTHCENTRAL AND SOUTHEAST MONTANA

CITY           SKY/WX    TMP DP  RH WIND       PRES   REMARKS
BAKER          PTCLDY    49  32  52 SE10      29.63F
BILLINGS       PTCLDY    62  25  24 W12       29.59F
LIVINGSTON     MOCLDY    64  12  13 SW20G30   29.60F
MILES CITY     CLEAR     57  31  37 SE6       29.56F
BIG TIMBER     CLEAR     63   5  10 W6        29.65F
EKALAKA          N/A     64  20  18 SE10      29.65
FORSYTH          N/A     63  28  27 CALM      29.55F
HARLOWTON        N/A     52  16  23 MISG      29.58F
LAUREL           N/A     59  23  25 SW13      29.60S
$$

REGIONAL REPORTS...DAKOTAS

CITY           SKY/WX    TMP DP  RH WIND       PRES   REMARKS
WILLISTON      CLEAR     50  33  52 CALM      29.58F
MINOT            N/A     57  35  43 SE6       29.63S
DICKINSON      CLEAR     51  28  41 S12       29.63F
BEACH            N/A     52  30  43 SE12      29.65F
CROSBY           N/A     46  32  57 S10       29.58F
TIOGA            N/A     48  28  46 CALM      29.63S
WATFORD CITY     N/A     48  32  53 CALM      29.60F
BISMARCK       CLEAR     49  39  68 SE10      29.68F
GRAND FORKS      N/A     51  41  68 S9        29.70S
FARGO            N/A     61  46  57 S12       29.75S
BUFFALO SD       N/A     56  26  31 W3        29.59F
RAPID CITY     CLEAR     54  23  30 E3        29.71S
$$

REGIONAL REPORTS...WYOMING/IDAHO/WASHINGTON

CITY           SKY/WX    TMP DP  RH WIND       PRES   REMARKS
GILLETTE       CLEAR     63  14  15 S18       29.70S
SHERIDAN       CLEAR     49  28  44 CALM      29.65S
BUFFALO WY     PTCLDY    63   3   9 S15       29.70F
CODY           CLEAR     57  16  20 S12       29.74F
YELLOWSTONE LA   N/A     27  22  81 NW3       29.92F
IDAHO FALLS    CLEAR     45  26  47 SW5       29.74F
SALMON         CLEAR     51  20  29 SE5       29.57F
BOISE          CLOUDY    63  16  16 S10       29.57S
SPOKANE        LGT RAIN  51  47  86 S3        29.51F
$$

REGIONAL REPORTS...ALBERTA

CITY           SKY/WX    TMP DP  RH WIND       PRES   REMARKS
EDMONTON       CLEAR     43  34  70 SE3       29.29F
CALGARY        CLEAR     43  34  70 W2        29.37F
LETHBRIDGE     MOCLDY    46  28  49 NW10G21   29.41S
MEDICINE HAT   CLEAR     48  34  57 VRB5      29.41F
$$

REGIONAL REPORTS...SASKATCHEWAN

CITY           SKY/WX    TMP DP  RH WIND       PRES   REMARKS
SWIFT CURRENT  CLEAR     48  25  40 SE10      29.45F
REGINA         PTCLDY    50  27  40 SE9       29.52F
SASKATOON      MOCLDY    48  39  71 SE6       29.47S
$$




USA.gov is the U.S. government's official web portal to all federal, state and local government web resources and services.